Location: Bad Dürkheim
(49.4618°N, 8.1724°E)
Time: 05:44:16
(UTC+00:00)

Aureole 3 Rocket - Pass Details

Date: 14 June 2025
Orbit: 397 x 1696 km, 82.5° (Epoch: 12 July)

Event Time Altitude Azimuth Distance (km) Brightness Sun altitude
Rises 21:51:04 0° 0° (N) 2,328 7.3 -14.1°
Reaches altitude 10° 21:53:10 10° 14° (NNE) 1,497 5.9 -14.2°
Maximum altitude 21:55:55 27° 75° (ENE) 902 3.8 -14.4°
Enters shadow 21:57:27 20° 116° (ESE) 1,168 4.1 -14.5°
